Weather Roundup
Issued by NWS Springfield, MO

Home | Current Version | Previous Version | Text Only | Print | Product List | Glossary On
Versions: 1 2 3 4 5 6 7 8 9 10 11 12 13 14 15 16 17 18 19 20 21 22 23 24 25 26 27 28 29 30 31 32 33 34 35 36 37 38 39 40 41 42 43 44 45 46 47 48 49 50
000
NZUS99 KSGF 221007
HRRSGF

HOURLY WEATHER
NATIONAL WEATHER SERVICE SPRINGFIELD MO
500 AM CDT SUN APR 22 2018

......SGF CWA......

CITY           SKY/WX    TMP DP  RH WIND       PRES   REMARKS
SPRINGFIELD    CLOUDY    55  45  68 E8        29.96S
JOPLIN         RAIN      50  50 100 NE8       29.98F FOG
WEST PLAINS    CLOUDY    56  47  71 E8G21     30.01S
ROLLA          LGT RAIN  52  38  58 E13       30.07F
OSAGE BEACH    CLOUDY    56  36  47 E16G22    30.04F
BRANSON        LGT RAIN  54  52  94 E9        29.96R

......SURROUNDING SGF CWA......

CITY           SKY/WX    TMP DP  RH WIND       PRES   REMARKS
CHANUTE        CLOUDY    49  46  90 N8        30.01F
PARSONS        CLOUDY    49  48  97 VRB5      30.00F
COFFEYVILLE    CLOUDY    49  47  93 N8        29.98F
EMPORIA        CLOUDY    46  39  76 N7        30.05S
GROVE OK       RAIN      52  52 100 CALM      29.97F
ROGERS AR      RAIN      51  50  96 CALM      29.97R FOG
SILOAM SPRINGS RAIN      51  51 100 CALM      29.96F FOG
HARRISON AR    RAIN      54  53  97 E10       29.94S FOG
NEAR YELLVILLE CLOUDY    56  53  90 E6        29.96F

......KANSAS AND MISSOURI......

CITY           SKY/WX    TMP DP  RH WIND       PRES   REMARKS
KANSAS CTY INT LGT RAIN  52  33  48 NE12      30.10S
DOWNTOWN KC    LGT RAIN  55  34  45 NE12      30.09S
COLUMBIA       CLOUDY    53  36  52 E10       30.11R
SEDALIA        LGT RAIN  54  40  59 E9        30.09S
ST JOSEPH      CLOUDY    52  32  46 NE9       30.13S
ST LOUIS       CLOUDY    54  32  43 E9        30.16S
SPIRIT OF STL  CLOUDY    53  37  54 E7        30.15R
KIRKSVILLE     CLOUDY    49  33  54 NE12      30.18S
WICHITA        LGT RAIN  45  44  97 NW16      30.08S
TOPEKA         CLOUDY    50  38  63 N7        30.08F
OLATHE         LGT RAIN  51  36  56 NE10      30.07S

......TENNESSEE......

CITY           SKY/WX    TMP DP  RH WIND       PRES   REMARKS
MEMPHIS        LGT RAIN  60  57  89 E9        30.00F
NASHVILLE      CLOUDY    57  45  62 CALM      30.16R

......ARKANSAS.......

CITY           SKY/WX    TMP DP  RH WIND       PRES   REMARKS
FAYETTEVILLE   LGT RAIN  52  52 100 SW3       29.96S
FT SMITH       CLOUDY    56  56 100 CALM      29.95R
LITTLE ROCK    FAIR      58  58 100 E6        29.92F

......OKLAHOMA.......

CITY           SKY/WX    TMP DP  RH WIND       PRES   REMARKS
TULSA          CLOUDY    49  46  90 NW10      30.01R
PONCA CITY     CLOUDY    46  44  93 NW8       30.07S FOG
MCALESTER      CLOUDY    49  48  97 NW13G20   30.02S
OKLAHOMA CITY  PTCLDY    44  41  89 N14       30.06F

......IOWA............

CITY           SKY/WX    TMP DP  RH WIND       PRES   REMARKS
DES MOINES     CLOUDY    47  32  56 NE10      30.24F
QUAD CITIES    FAIR      45  25  45 E10       30.28F

......ILLINOIS........

CITY           SKY/WX    TMP DP  RH WIND       PRES   REMARKS
QUINCY         CLOUDY    49  32  52 E15       30.18F
CHICAGO        CLOUDY    44  20  38 E7        30.33F




USA.gov is the U.S. government's official web portal to all federal, state and local government web resources and services.